Location: Croissy-Beaubourg
(48.8283°N, 2.6696°E)
Time: 04:35:11
(UTC+00:00)

SL-8 Rocket - Pass Details

Date: 16 October 2021
Orbit: 956 x 991 km, 82.9° (Epoch: 30 November)

Event Time Altitude Azimuth Distance (km) Brightness Sun altitude
Rises 17:23:42 0° 186° (S) 3,692 7.2 -5.1°
Reaches altitude 10° 17:26:13 10° 186° (S) 2,747 6.6 -5.5°
Maximum altitude 17:32:32 88° 97° (E) 999 4.1 -6.5°
Drops below altitude 10° 17:38:54 10° 10° (N) 2,758 6.2 -7.6°
Sets 17:41:25 0° 10° (N) 3,707 6.9 -8.0°
